DLH12FR SVMI-LEMD

Flight info

Callsign DLH12FR
Flight time N/A
Altitude 37000
Route SOSKA2 OPUTU DCT ONGAL UN669 ELJEZ/M082F370 DCT 22N050W 27N040W 31N030W/M082F390 33N020W DCT IRKID/N0467F400 DCT NASAS DCT ELVAR DCT OGERO Z409 TLD
Aircraft A388/J-SADE2E3FGHIJ3J4J5M1RWXY/LB1D1

Departure

Time 2026-05-01 11:22
Airport Maiquetía Simón Bolívar International Airport (SVMI)

Arrival

Time N/A
Airport Adolfo Suárez Madrid–Barajas Airport (LEMD)
Time Latitude Longitude Altitude Speed Heading
2026-05-01 11:07 10.59843 -67.00237 228 ft 0 kts 179°
2026-05-01 11:14 10.59887 -67.00238 229 ft 0 kts 179°
2026-05-01 11:14 10.59904 -67.00157 228 ft 0 kts 268°
2026-05-01 11:18 10.59904 -67.00160 228 ft 2 kts 268°
2026-05-01 11:19 10.59903 -67.00199 228 ft 9 kts 272°
2026-05-01 11:19 10.59926 -67.00275 231 ft 14 kts 312°
2026-05-01 11:19 10.60024 -67.00301 227 ft 18 kts 356°
2026-05-01 11:19 10.60104 -67.00251 225 ft 14 kts 76°
2026-05-01 11:20 10.60117 -67.00136 224 ft 18 kts 86°
2026-05-01 11:20 10.60119 -66.99997 222 ft 21 kts 88°
2026-05-01 11:20 10.60126 -66.99844 223 ft 22 kts 86°
2026-05-01 11:20 10.60117 -66.99693 227 ft 15 kts 137°
2026-05-01 11:21 10.60031 -66.99670 232 ft 12 kts 177°
2026-05-01 11:21 10.59949 -66.99666 237 ft 12 kts 172°
2026-05-01 11:21 10.59915 -66.99619 234 ft 12 kts 90°
2026-05-01 11:21 10.59933 -66.99506 230 ft 30 kts 77°
2026-05-01 11:22 10.60050 -66.99024 208 ft 110 kts 76°
2026-05-01 11:22 10.60283 -66.98062 164 ft 165 kts 76°
2026-05-01 11:22 10.60593 -66.96874 515 ft 175 kts 76°
2026-05-01 11:22 10.60884 -66.95635 967 ft 191 kts 80°
2026-05-01 11:23 10.61129 -66.94237 1387 ft 214 kts 81°
2026-05-01 11:23 10.61399 -66.92679 1899 ft 232 kts 80°
2026-05-01 11:23 10.61707 -66.91004 2449 ft 249 kts 80°
2026-05-01 11:23 10.62041 -66.89239 2987 ft 263 kts 81°
2026-05-01 11:24 10.62367 -66.87381 3518 ft 258 kts 81°
2026-05-01 11:24 10.62670 -66.85615 4046 ft 260 kts 81°
2026-05-01 11:24 10.63301 -66.81896 5125 ft 272 kts 81°
2026-05-01 11:25 10.63637 -66.79996 5662 ft 274 kts 81°
2026-05-01 11:25 10.64313 -66.76158 6730 ft 278 kts 81°
2026-05-01 11:25 10.64652 -66.74221 7229 ft 279 kts 81°
2026-05-01 11:26 10.64992 -66.72270 7754 ft 281 kts 81°
2026-05-01 11:26 10.65674 -66.68352 8828 ft 283 kts 81°
2026-05-01 11:26 10.66017 -66.66379 9377 ft 283 kts 81°
2026-05-01 11:27 10.66359 -66.64405 9917 ft 284 kts 81°
2026-05-01 11:27 10.66703 -66.62418 10315 ft 288 kts 81°
2026-05-01 11:27 10.67050 -66.60399 10722 ft 292 kts 81°
2026-05-01 11:27 10.67403 -66.58354 11119 ft 296 kts 81°
2026-05-01 11:28 10.67760 -66.56284 11519 ft 300 kts 81°
2026-05-01 11:28 10.68123 -66.54179 11925 ft 303 kts 81°
2026-05-01 11:28 10.68488 -66.52063 12338 ft 306 kts 81°
2026-05-01 11:29 10.70422 -66.48238 13140 ft 316 kts 45°
2026-05-01 11:29 10.72027 -66.46706 13549 ft 318 kts 45°
2026-05-01 11:29 10.75242 -66.43550 14284 ft 323 kts 45°
2026-05-01 11:30 10.76851 -66.41954 14648 ft 324 kts 45°
2026-05-01 11:30 10.78476 -66.40344 15024 ft 326 kts 45°
2026-05-01 11:30 10.80107 -66.38732 15389 ft 328 kts 45°
2026-05-01 11:30 10.81740 -66.37117 15764 ft 329 kts 45°
2026-05-01 11:31 10.83383 -66.35494 16149 ft 330 kts 45°
2026-05-01 11:31 10.85031 -66.33867 16523 ft 330 kts 45°
2026-05-01 11:31 10.86681 -66.32236 16918 ft 331 kts 45°
2026-05-01 11:31 10.88340 -66.30597 17295 ft 332 kts 45°
2026-05-01 11:32 10.89994 -66.28962 17718 ft 332 kts 45°
2026-05-01 11:32 10.91655 -66.27320 18137 ft 332 kts 45°
2026-05-01 11:32 10.93311 -66.25681 18490 ft 332 kts 45°
2026-05-01 11:32 10.94948 -66.24062 18845 ft 332 kts 45°
2026-05-01 11:33 10.96605 -66.22422 19190 ft 332 kts 45°
2026-05-01 11:33 10.98279 -66.20765 19556 ft 332 kts 45°
2026-05-01 11:33 10.99926 -66.19133 19802 ft 338 kts 45°
2026-05-01 11:33 11.01629 -66.17440 20048 ft 347 kts 45°
2026-05-01 11:34 11.03375 -66.15706 20278 ft 355 kts 45°
2026-05-01 11:34 11.05162 -66.13933 20522 ft 363 kts 45°
2026-05-01 11:34 11.07019 -66.12093 20771 ft 371 kts 45°
2026-05-01 11:34 11.08889 -66.10242 21008 ft 378 kts 45°
2026-05-01 11:35 11.10765 -66.08384 21242 ft 385 kts 45°
2026-05-01 11:35 11.12701 -66.06465 21490 ft 391 kts 44°
2026-05-01 11:35 11.14692 -66.04492 21746 ft 398 kts 44°
2026-05-01 11:35 11.18185 -66.01031 22378 ft 402 kts 44°
2026-05-01 11:36 11.22262 -65.96987 23159 ft 405 kts 44°
2026-05-01 11:36 11.26251 -65.93030 23864 ft 407 kts 44°
2026-05-01 11:36 11.30323 -65.88988 24509 ft 409 kts 44°
2026-05-01 11:36 11.34407 -65.84932 25182 ft 411 kts 44°
2026-05-01 11:37 11.38505 -65.80862 25853 ft 410 kts 44°
2026-05-01 11:37 11.42558 -65.76819 26554 ft 408 kts 46°
2026-05-01 11:37 11.46012 -65.72256 27283 ft 406 kts 55°
2026-05-01 11:37 11.49238 -65.67542 28026 ft 404 kts 54°
2026-05-01 11:38 11.52466 -65.62859 28778 ft 402 kts 54°
2026-05-01 11:38 11.55682 -65.58181 29399 ft 406 kts 54°
2026-05-01 11:38 11.58952 -65.53416 29934 ft 412 kts 54°
2026-05-01 11:38 11.62265 -65.48588 30403 ft 419 kts 53°
2026-05-01 11:39 11.65631 -65.43679 30859 ft 426 kts 53°
2026-05-01 11:39 11.69073 -65.38657 31333 ft 434 kts 53°
2026-05-01 11:39 11.72565 -65.33559 31826 ft 442 kts 53°
2026-05-01 11:39 11.76115 -65.28375 32312 ft 449 kts 53°
2026-05-01 11:40 11.79716 -65.23112 32824 ft 455 kts 53°
2026-05-01 11:40 11.83370 -65.17769 33311 ft 461 kts 53°
2026-05-01 11:40 11.87051 -65.12384 33832 ft 466 kts 52°
2026-05-01 11:40 11.90775 -65.06933 34301 ft 469 kts 52°
2026-05-01 11:41 11.94481 -65.01503 34752 ft 473 kts 52°
2026-05-01 11:41 11.98255 -64.95974 35222 ft 475 kts 52°
2026-05-01 11:41 12.02048 -64.90411 35696 ft 477 kts 52°
2026-05-01 11:41 12.05849 -64.84834 36134 ft 480 kts 52°
2026-05-01 11:42 12.09674 -64.79220 36575 ft 481 kts 52°
2026-05-01 11:42 12.13507 -64.73590 36984 ft 484 kts 52°
2026-05-01 11:42 12.17405 -64.67864 36958 ft 496 kts 52°
2026-05-01 11:42 12.21391 -64.62004 36963 ft 509 kts 52°
2026-05-01 11:43 12.25480 -64.55988 36964 ft 522 kts 53°
2026-05-01 11:43 12.29671 -64.49816 37142 ft 531 kts 53°
2026-05-01 11:43 12.33883 -64.43607 37709 ft 532 kts 53°
2026-05-01 11:44 12.40924 -64.33223 38674 ft 532 kts 53°
2026-05-01 11:44 12.45147 -64.26990 38967 ft 537 kts 53°
2026-05-01 11:44 12.49408 -64.20697 38966 ft 529 kts 53°
2026-05-01 11:45 12.53591 -64.14514 38972 ft 533 kts 53°
2026-05-01 11:45 12.57843 -64.08228 38973 ft 536 kts 53°
2026-05-01 11:46 12.62077 -64.01961 38975 ft 536 kts 53°
2026-05-01 11:46 12.66316 -63.95683 38974 ft 536 kts 53°
2026-05-01 11:47 12.70558 -63.89396 38972 ft 536 kts 53°
2026-05-01 11:47 12.74802 -63.83102 38974 ft 536 kts 53°
2026-05-01 11:48 12.79036 -63.76818 38974 ft 536 kts 53°
2026-05-01 11:48 12.83246 -63.70567 38975 ft 536 kts 53°
2026-05-01 11:49 12.87562 -63.64333 38981 ft 535 kts 47°
2026-05-01 11:49 12.92336 -63.58429 38980 ft 535 kts 47°
2026-05-01 11:50 12.97037 -63.52578 38980 ft 535 kts 48°
2026-05-01 11:50 13.01767 -63.46685 38979 ft 535 kts 47°
2026-05-01 11:51 13.06501 -63.40784 38984 ft 535 kts 48°
2026-05-01 11:51 13.11229 -63.34885 38983 ft 536 kts 48°
2026-05-01 11:52 13.15965 -63.28974 38983 ft 536 kts 48°
2026-05-01 11:52 13.20697 -63.23064 38984 ft 536 kts 48°
2026-05-01 11:53 13.25430 -63.17147 38984 ft 536 kts 48°
2026-05-01 11:53 13.30160 -63.11231 38985 ft 536 kts 48°
2026-05-01 11:54 13.34869 -63.05337 38988 ft 537 kts 48°
2026-05-01 11:54 13.39607 -62.99402 38992 ft 537 kts 48°
2026-05-01 11:55 13.44345 -62.93464 38991 ft 537 kts 48°
2026-05-01 11:55 13.49079 -62.87525 38989 ft 537 kts 48°
2026-05-01 11:56 13.53813 -62.81584 38990 ft 537 kts 48°
2026-05-01 11:56 13.58546 -62.75640 38993 ft 537 kts 48°
2026-05-01 11:57 13.63283 -62.69686 38996 ft 538 kts 48°
2026-05-01 11:57 13.68018 -62.63730 38997 ft 538 kts 48°
2026-05-01 11:58 13.72722 -62.57810 38997 ft 537 kts 48°
2026-05-01 11:59 13.79812 -62.48878 39000 ft 537 kts 48°
2026-05-01 11:59 13.84533 -62.42926 38999 ft 537 kts 48°
2026-05-01 12:00 13.91607 -62.33999 39002 ft 536 kts 48°
2026-05-01 12:01 13.98676 -62.25068 39000 ft 536 kts 48°
2026-05-01 12:01 14.03387 -62.19112 39005 ft 536 kts 48°
2026-05-01 12:02 14.08064 -62.13193 39006 ft 536 kts 48°
2026-05-01 12:02 14.12773 -62.07231 39006 ft 536 kts 48°
2026-05-01 12:03 14.17486 -62.01258 39001 ft 537 kts 48°
2026-05-01 12:03 14.22204 -61.95275 39002 ft 537 kts 48°
2026-05-01 12:04 14.26918 -61.89293 39001 ft 537 kts 48°
2026-05-01 12:04 14.31634 -61.83305 39000 ft 538 kts 48°
2026-05-01 12:05 14.36353 -61.77306 38998 ft 538 kts 48°
2026-05-01 12:05 14.43387 -61.68358 38999 ft 538 kts 48°
2026-05-01 12:06 14.48107 -61.62349 38994 ft 538 kts 48°
2026-05-01 12:06 14.52815 -61.56349 38992 ft 538 kts 48°
2026-05-01 12:07 14.57537 -61.50327 38987 ft 538 kts 48°
2026-05-01 12:07 14.62241 -61.44325 38987 ft 539 kts 48°
2026-05-01 12:08 14.66963 -61.38295 38989 ft 539 kts 48°
2026-05-01 12:08 14.71676 -61.32271 38989 ft 539 kts 48°
2026-05-01 12:09 14.76389 -61.26243 38992 ft 540 kts 48°
2026-05-01 12:09 14.81114 -61.20195 38995 ft 540 kts 48°
2026-05-01 12:10 14.88190 -61.11131 39001 ft 540 kts 48°
2026-05-01 12:11 14.95262 -61.02054 39008 ft 540 kts 48°
2026-05-01 12:11 14.99969 -60.96010 39007 ft 540 kts 48°
2026-05-01 12:12 15.04656 -60.89986 39011 ft 540 kts 48°
2026-05-01 12:12 15.09374 -60.83918 39020 ft 540 kts 48°
2026-05-01 12:13 15.13962 -60.78012 39012 ft 540 kts 48°
2026-05-01 12:13 15.18676 -60.71939 39017 ft 540 kts 48°
2026-05-01 12:14 15.23359 -60.65901 39011 ft 540 kts 48°
2026-05-01 12:14 15.28063 -60.59832 39012 ft 540 kts 48°
2026-05-01 12:15 15.32772 -60.53751 39021 ft 541 kts 48°
2026-05-01 12:15 15.37475 -60.47673 39024 ft 541 kts 48°
2026-05-01 12:16 15.42180 -60.41588 39025 ft 541 kts 48°
2026-05-01 12:16 15.46880 -60.35505 39023 ft 541 kts 48°
2026-05-01 12:17 15.51591 -60.29401 39021 ft 541 kts 48°
2026-05-01 12:17 15.56292 -60.23307 39023 ft 541 kts 48°
2026-05-01 12:18 15.60961 -60.17248 39019 ft 541 kts 48°
2026-05-01 12:18 15.65660 -60.11145 39021 ft 541 kts 48°
2026-05-01 12:19 15.70359 -60.05038 39023 ft 541 kts 48°
2026-05-01 12:19 15.75057 -59.98928 39018 ft 541 kts 48°
2026-05-01 12:20 15.79758 -59.92808 39025 ft 542 kts 48°
2026-05-01 12:20 15.84450 -59.86695 39025 ft 542 kts 48°
2026-05-01 12:21 15.89159 -59.80554 39024 ft 543 kts 48°
2026-05-01 12:21 15.93860 -59.74418 39028 ft 543 kts 48°
2026-05-01 12:22 15.98559 -59.68281 39024 ft 543 kts 48°
2026-05-01 12:22 16.03230 -59.62175 39028 ft 543 kts 48°
2026-05-01 12:23 16.07931 -59.56025 39031 ft 543 kts 48°
2026-05-01 12:23 16.12631 -59.49870 39029 ft 543 kts 48°
2026-05-01 12:24 16.17333 -59.43710 39029 ft 544 kts 48°
2026-05-01 12:24 16.22030 -59.37545 39029 ft 543 kts 48°
2026-05-01 12:25 16.29081 -59.28288 39026 ft 544 kts 48°
2026-05-01 12:26 16.33782 -59.22110 39028 ft 544 kts 48°
2026-05-01 12:26 16.40794 -59.12885 39031 ft 544 kts 48°
2026-05-01 12:27 16.47835 -59.03607 39035 ft 544 kts 48°
2026-05-01 12:28 16.54879 -58.94315 39035 ft 545 kts 48°
2026-05-01 12:29 16.61917 -58.85017 39039 ft 545 kts 48°
2026-05-01 12:29 16.68958 -58.75704 39023 ft 545 kts 48°
2026-05-01 12:30 16.75207 -58.67428 39047 ft 546 kts 48°
2026-05-01 12:31 16.79898 -58.61210 39038 ft 545 kts 48°
2026-05-01 12:31 16.84589 -58.54985 39027 ft 545 kts 48°
2026-05-01 12:32 16.89280 -58.48755 39034 ft 546 kts 48°
2026-05-01 12:32 16.96315 -58.39401 39057 ft 546 kts 48°
2026-05-01 12:33 17.01003 -58.33160 39044 ft 546 kts 48°
2026-05-01 12:33 17.05688 -58.26918 39042 ft 546 kts 48°
2026-05-01 12:34 17.10348 -58.20704 39042 ft 546 kts 48°
2026-05-01 12:34 17.15038 -58.14444 39042 ft 546 kts 48°
2026-05-01 12:35 17.19720 -58.08189 39046 ft 546 kts 48°
2026-05-01 12:35 17.24409 -58.01920 39047 ft 546 kts 48°
2026-05-01 12:36 17.29092 -57.95652 39046 ft 546 kts 48°
2026-05-01 12:36 17.33773 -57.89379 39047 ft 547 kts 48°
2026-05-01 12:37 17.38451 -57.83107 39051 ft 546 kts 48°
2026-05-01 12:37 17.43126 -57.76832 39049 ft 546 kts 48°
2026-05-01 12:38 17.47778 -57.70583 39049 ft 546 kts 48°
2026-05-01 12:38 17.52447 -57.64305 39045 ft 547 kts 48°
2026-05-01 12:39 17.57122 -57.58014 39050 ft 547 kts 48°
2026-05-01 12:39 17.61803 -57.51707 39048 ft 547 kts 48°
2026-05-01 12:40 17.66468 -57.45419 39051 ft 547 kts 48°
2026-05-01 12:40 17.71135 -57.39116 39051 ft 547 kts 48°
2026-05-01 12:41 17.75807 -57.32801 39056 ft 547 kts 48°
2026-05-01 12:41 17.80451 -57.26520 39054 ft 547 kts 47°
2026-05-01 12:42 17.85116 -57.20204 39054 ft 547 kts 47°
2026-05-01 12:42 17.89780 -57.13883 39052 ft 547 kts 47°
2026-05-01 12:43 17.94440 -57.07563 39056 ft 548 kts 47°
2026-05-01 12:43 17.99108 -57.01224 39056 ft 548 kts 48°
2026-05-01 12:44 18.03534 -56.94148 39056 ft 552 kts 53°
2026-05-01 12:45 18.12217 -56.79773 39059 ft 552 kts 53°
2026-05-01 12:45 18.16332 -56.72954 39060 ft 552 kts 53°
2026-05-01 12:46 18.20446 -56.66129 39062 ft 553 kts 53°
2026-05-01 12:46 18.24566 -56.59286 39061 ft 553 kts 53°
2026-05-01 12:47 18.28683 -56.52438 39061 ft 554 kts 54°
2026-05-01 12:47 18.32804 -56.45573 39062 ft 554 kts 54°
2026-05-01 12:48 18.36918 -56.38713 39065 ft 554 kts 54°
2026-05-01 12:48 18.41031 -56.31846 39062 ft 554 kts 54°
2026-05-01 12:49 18.45122 -56.25011 39063 ft 555 kts 54°
2026-05-01 12:49 18.49233 -56.18134 39068 ft 555 kts 54°
2026-05-01 12:50 18.53347 -56.11245 39066 ft 556 kts 54°
2026-05-01 12:50 18.57397 -56.04453 39066 ft 556 kts 54°
2026-05-01 12:51 18.61469 -55.97619 39068 ft 557 kts 54°
2026-05-01 12:52 18.67646 -55.87239 39070 ft 558 kts 54°
2026-05-01 12:52 18.73798 -55.76883 39059 ft 558 kts 54°
2026-05-01 12:53 18.79976 -55.66466 39058 ft 558 kts 54°
2026-05-01 12:54 18.84096 -55.59507 39085 ft 559 kts 54°
2026-05-01 12:54 18.90225 -55.49144 39085 ft 559 kts 54°
2026-05-01 12:55 18.96405 -55.38677 39066 ft 560 kts 54°
2026-05-01 12:56 19.00526 -55.31688 39070 ft 560 kts 54°
2026-05-01 12:56 19.04650 -55.24685 39078 ft 560 kts 54°
2026-05-01 12:57 19.08764 -55.17691 39073 ft 560 kts 54°
2026-05-01 12:57 19.14917 -55.07217 39078 ft 561 kts 54°
2026-05-01 12:58 19.19037 -55.00192 39073 ft 562 kts 54°
2026-05-01 12:59 19.25164 -54.89733 39074 ft 563 kts 54°
2026-05-01 12:59 19.31341 -54.79168 39071 ft 563 kts 53°
2026-05-01 13:00 19.37528 -54.68569 39077 ft 564 kts 53°
2026-05-01 13:01 19.41660 -54.61495 38878 ft 565 kts 53°
2026-05-01 13:01 19.43723 -54.57966 39093 ft 565 kts 53°
2026-05-01 13:01 19.47812 -54.50918 38912 ft 563 kts 53°
2026-05-01 13:02 19.49860 -54.47388 38877 ft 563 kts 53°
2026-05-01 13:07 19.93096 -53.72520 40876 ft 566 kts 54°
2026-05-01 13:07 19.95144 -53.68951 40878 ft 566 kts 54°
2026-05-01 13:08 19.99243 -53.61800 40875 ft 566 kts 54°
2026-05-01 13:08 20.03339 -53.54644 40875 ft 566 kts 54°
2026-05-01 13:09 20.07430 -53.47489 40875 ft 566 kts 54°
2026-05-01 13:09 20.11462 -53.40429 40874 ft 566 kts 54°
2026-05-01 13:10 20.15556 -53.33253 40874 ft 566 kts 54°
2026-05-01 13:10 20.19597 -53.26158 40875 ft 566 kts 54°
2026-05-01 13:11 20.23651 -53.19032 40876 ft 566 kts 54°
2026-05-01 13:11 20.27727 -53.11860 40878 ft 566 kts 54°
2026-05-01 13:12 20.31808 -53.04671 40879 ft 566 kts 54°
2026-05-01 13:12 20.35885 -52.97479 40880 ft 566 kts 54°
2026-05-01 13:13 20.39960 -52.90281 40874 ft 567 kts 54°
2026-05-01 13:13 20.44025 -52.83092 40875 ft 566 kts 54°
2026-05-01 13:14 20.48064 -52.75939 40877 ft 566 kts 55°
2026-05-01 13:14 20.52128 -52.68735 40876 ft 567 kts 55°
2026-05-01 13:15 20.56194 -52.61518 40874 ft 566 kts 55°
2026-05-01 13:15 20.60124 -52.54532 40880 ft 565 kts 55°
2026-05-01 13:16 20.64177 -52.47320 40875 ft 567 kts 55°
2026-05-01 13:16 20.68234 -52.40090 40876 ft 566 kts 55°
2026-05-01 13:17 20.76304 -52.25683 40875 ft 567 kts 55°
2026-05-01 13:18 20.82366 -52.14835 40880 ft 566 kts 55°
2026-05-01 13:18 20.85723 -52.08820 40878 ft 566 kts 55°
2026-05-01 13:19 20.89756 -52.01584 40874 ft 566 kts 55°
2026-05-01 13:20 20.95804 -51.90716 40876 ft 566 kts 55°
2026-05-01 13:20 20.99828 -51.83473 40879 ft 566 kts 55°
2026-05-01 13:21 21.05860 -51.72599 40880 ft 566 kts 55°
2026-05-01 13:21 21.09870 -51.65357 40877 ft 566 kts 55°
2026-05-01 13:22 21.13858 -51.58146 40878 ft 566 kts 55°
2026-05-01 13:22 21.17867 -51.50888 40875 ft 566 kts 55°
2026-05-01 13:23 21.21865 -51.43640 40879 ft 566 kts 55°
2026-05-01 13:23 21.25873 -51.36365 40878 ft 566 kts 55°
2026-05-01 13:24 21.29879 -51.29083 40874 ft 566 kts 56°
2026-05-01 13:25 21.35868 -51.18178 40877 ft 566 kts 56°
2026-05-01 13:25 21.39863 -51.10893 40877 ft 566 kts 56°
2026-05-01 13:26 21.43855 -51.03601 40879 ft 566 kts 56°
2026-05-01 13:26 21.47839 -50.96317 40880 ft 566 kts 56°
2026-05-01 13:27 21.51796 -50.89072 40881 ft 566 kts 56°
2026-05-01 13:27 21.57764 -50.78125 40881 ft 566 kts 56°
2026-05-01 13:28 21.63723 -50.67173 40881 ft 566 kts 56°
2026-05-01 13:29 21.71665 -50.52542 40882 ft 566 kts 56°
2026-05-01 13:31 21.83555 -50.30564 40862 ft 566 kts 56°
2026-05-01 13:32 21.93401 -50.12313 40882 ft 566 kts 56°
2026-05-01 13:33 22.03249 -49.94073 40870 ft 567 kts 55°
2026-05-01 13:34 22.11312 -49.79469 40878 ft 567 kts 55°
2026-05-01 13:35 22.17331 -49.68538 40873 ft 567 kts 55°
2026-05-01 13:36 22.23311 -49.57654 40873 ft 568 kts 55°
2026-05-01 13:36 22.29356 -49.46628 40869 ft 568 kts 55°
2026-05-01 13:37 22.33380 -49.39272 40874 ft 569 kts 56°
2026-05-01 13:37 22.37374 -49.31957 40872 ft 569 kts 56°
2026-05-01 13:38 22.43365 -49.20965 40874 ft 569 kts 56°
2026-05-01 13:39 22.47358 -49.13625 40873 ft 569 kts 56°
2026-05-01 13:39 22.51380 -49.06224 40871 ft 570 kts 56°
2026-05-01 13:40 22.55389 -48.98833 40870 ft 569 kts 56°
2026-05-01 13:40 22.59370 -48.91485 40870 ft 569 kts 56°
2026-05-01 13:41 22.63374 -48.84084 40872 ft 570 kts 56°
2026-05-01 13:41 22.67374 -48.76679 40866 ft 570 kts 56°
2026-05-01 13:42 22.71369 -48.69273 40862 ft 570 kts 56°
2026-05-01 13:42 22.75368 -48.61850 40868 ft 570 kts 56°
2026-05-01 13:43 22.79340 -48.54465 40871 ft 570 kts 56°
2026-05-01 13:43 22.83329 -48.47038 40870 ft 570 kts 56°
2026-05-01 13:44 22.87319 -48.39599 40868 ft 570 kts 56°
2026-05-01 13:44 22.91299 -48.32167 40867 ft 570 kts 56°
2026-05-01 13:45 22.95276 -48.24732 40866 ft 569 kts 56°
2026-05-01 13:45 22.99254 -48.17282 40869 ft 569 kts 56°
2026-05-01 13:46 23.03196 -48.09889 40866 ft 569 kts 56°
2026-05-01 13:46 23.07161 -48.02442 40865 ft 569 kts 56°
2026-05-01 13:47 23.11121 -47.94993 40867 ft 569 kts 56°
2026-05-01 13:47 23.15079 -47.87539 40867 ft 569 kts 56°
2026-05-01 13:48 23.19027 -47.80090 40864 ft 568 kts 56°
2026-05-01 13:48 23.22975 -47.72631 40865 ft 569 kts 56°
2026-05-01 13:49 23.26921 -47.65165 40865 ft 569 kts 56°
2026-05-01 13:49 23.30833 -47.57752 40862 ft 569 kts 56°
2026-05-01 13:50 23.34764 -47.50293 40853 ft 568 kts 56°
2026-05-01 13:50 23.38707 -47.42800 40855 ft 569 kts 56°
2026-05-01 13:51 23.42638 -47.35318 40877 ft 569 kts 56°
2026-05-01 13:51 23.46566 -47.27830 40859 ft 569 kts 56°
2026-05-01 13:52 23.50473 -47.20371 40859 ft 569 kts 56°
2026-05-01 13:52 23.54398 -47.12867 40860 ft 569 kts 56°
2026-05-01 13:53 23.58315 -47.05366 40861 ft 569 kts 56°
2026-05-01 13:53 23.64187 -46.94100 40859 ft 569 kts 57°
2026-05-01 13:54 23.68090 -46.86598 40859 ft 569 kts 57°
2026-05-01 13:54 23.71985 -46.79099 40864 ft 568 kts 57°
2026-05-01 13:55 23.75859 -46.71632 40855 ft 569 kts 57°
2026-05-01 13:55 23.79747 -46.64124 40860 ft 569 kts 57°
2026-05-01 13:56 23.83639 -46.56597 40858 ft 569 kts 57°
2026-05-01 13:56 23.87525 -46.49069 40856 ft 568 kts 57°
2026-05-01 13:57 23.90750 -46.42813 40857 ft 568 kts 57°
2026-05-01 13:57 23.95283 -46.34008 40856 ft 568 kts 57°
2026-05-01 13:58 23.99156 -46.26472 40863 ft 568 kts 57°
2026-05-01 13:58 24.03000 -46.18980 40858 ft 568 kts 57°
2026-05-01 13:59 24.06867 -46.11431 40853 ft 568 kts 57°
2026-05-01 13:59 24.10724 -46.03893 40851 ft 568 kts 57°
2026-05-01 14:00 24.14582 -45.96338 40853 ft 568 kts 57°
2026-05-01 14:00 24.18430 -45.88790 40852 ft 568 kts 57°
2026-05-01 14:01 24.22276 -45.81236 40850 ft 568 kts 57°
2026-05-01 14:01 24.26119 -45.73677 40850 ft 568 kts 57°
2026-05-01 14:02 24.29959 -45.66109 40848 ft 568 kts 57°
2026-05-01 14:02 24.33795 -45.58539 40850 ft 568 kts 57°
2026-05-01 14:03 24.37625 -45.50969 40846 ft 567 kts 58°
2026-05-01 14:03 24.41451 -45.43393 40849 ft 568 kts 58°
2026-05-01 14:04 24.44632 -45.37086 40851 ft 568 kts 58°
2026-05-01 14:04 24.48452 -45.29503 40847 ft 568 kts 58°
2026-05-01 14:05 24.52267 -45.21914 40844 ft 567 kts 58°
2026-05-01 14:05 24.56699 -45.13085 40847 ft 567 kts 58°
2026-05-01 14:06 24.59887 -45.06724 40848 ft 568 kts 58°
2026-05-01 14:06 24.63687 -44.99130 40847 ft 568 kts 58°
2026-05-01 14:07 24.67490 -44.91517 40842 ft 567 kts 58°
2026-05-01 14:08 24.73183 -44.80099 40842 ft 567 kts 58°
2026-05-01 14:08 24.76972 -44.72484 40843 ft 567 kts 58°
2026-05-01 14:09 24.80732 -44.64916 40844 ft 567 kts 58°
2026-05-01 14:09 24.84517 -44.57283 40844 ft 567 kts 58°
2026-05-01 14:10 24.88295 -44.49654 40842 ft 567 kts 58°
2026-05-01 14:10 24.92070 -44.42017 40843 ft 567 kts 58°
2026-05-01 14:11 24.95837 -44.34384 40840 ft 567 kts 58°
2026-05-01 14:11 25.01480 -44.22927 40841 ft 567 kts 58°
2026-05-01 14:12 25.05241 -44.15274 40839 ft 567 kts 58°
2026-05-01 14:12 25.08994 -44.07627 40821 ft 567 kts 58°
2026-05-01 14:13 25.12748 -43.99964 40832 ft 567 kts 58°
2026-05-01 14:13 25.16493 -43.92306 40848 ft 567 kts 58°
2026-05-01 14:14 25.20212 -43.84687 40829 ft 566 kts 58°
2026-05-01 14:14 25.23952 -43.77015 40833 ft 567 kts 58°
2026-05-01 14:15 25.27684 -43.69347 40834 ft 567 kts 58°
2026-05-01 14:15 25.31413 -43.61670 40831 ft 567 kts 58°
2026-05-01 14:16 25.35145 -43.53976 40833 ft 567 kts 58°
2026-05-01 14:16 25.38871 -43.46281 40835 ft 567 kts 58°
2026-05-01 14:17 25.42587 -43.38591 40831 ft 567 kts 58°
2026-05-01 14:17 25.46299 -43.30898 40828 ft 567 kts 58°
2026-05-01 14:18 25.49989 -43.23238 40831 ft 567 kts 59°
2026-05-01 14:18 25.53094 -43.16782 40830 ft 567 kts 59°
2026-05-01 14:19 25.57400 -43.07815 40831 ft 567 kts 59°
2026-05-01 14:19 25.61095 -43.00105 40831 ft 567 kts 59°
2026-05-01 14:20 25.66637 -42.88517 40829 ft 567 kts 59°
2026-05-01 14:21 25.70328 -42.80781 40832 ft 567 kts 59°
2026-05-01 14:21 25.74013 -42.73045 40829 ft 567 kts 59°
2026-05-01 14:22 25.79511 -42.61479 40830 ft 567 kts 59°
2026-05-01 14:22 25.83191 -42.53722 40828 ft 567 kts 59°
2026-05-01 14:23 25.86864 -42.45965 40826 ft 567 kts 59°
2026-05-01 14:23 25.90532 -42.38204 40830 ft 567 kts 59°
2026-05-01 14:24 25.94198 -42.30435 40830 ft 567 kts 59°
2026-05-01 14:24 25.97859 -42.22661 40821 ft 567 kts 59°
2026-05-01 14:25 26.01514 -42.14889 40829 ft 568 kts 59°
2026-05-01 14:25 26.05142 -42.07159 40837 ft 567 kts 59°
2026-05-01 14:26 26.10608 -41.95488 40823 ft 567 kts 59°
2026-05-01 14:27 26.14251 -41.87691 40819 ft 567 kts 59°
2026-05-01 14:27 26.17886 -41.79898 40821 ft 567 kts 59°
2026-05-01 14:28 26.23332 -41.68199 40823 ft 567 kts 59°
2026-05-01 14:28 26.26959 -41.60388 40823 ft 567 kts 59°
2026-05-01 14:29 26.30583 -41.52569 40821 ft 567 kts 59°
2026-05-01 14:30 26.37814 -41.36930 40818 ft 567 kts 59°
2026-05-01 14:31 26.43223 -41.25193 40821 ft 567 kts 60°
2026-05-01 14:31 26.46798 -41.17416 40819 ft 567 kts 60°
2026-05-01 14:32 26.50395 -41.09581 40818 ft 567 kts 60°
2026-05-01 14:32 26.53986 -41.01742 40819 ft 567 kts 60°
2026-05-01 14:33 26.57578 -40.93889 40821 ft 567 kts 60°
2026-05-01 14:33 26.61162 -40.86038 40818 ft 567 kts 60°
2026-05-01 14:34 26.64742 -40.78181 40817 ft 567 kts 60°
2026-05-01 14:34 26.68319 -40.70316 40818 ft 567 kts 60°
2026-05-01 14:35 26.71891 -40.62449 40820 ft 567 kts 60°
2026-05-01 14:35 26.75457 -40.54579 40819 ft 567 kts 60°
2026-05-01 14:36 26.79018 -40.46706 40817 ft 567 kts 60°
2026-05-01 14:36 26.82580 -40.38824 40816 ft 567 kts 60°
2026-05-01 14:37 26.86134 -40.30949 40819 ft 567 kts 60°
2026-05-01 14:37 26.89690 -40.23057 40817 ft 567 kts 60°
2026-05-01 14:38 26.93238 -40.15166 40813 ft 567 kts 60°
2026-05-01 14:38 26.96783 -40.07268 40810 ft 567 kts 60°
2026-05-01 14:39 27.00299 -39.99360 40811 ft 568 kts 63°
2026-05-01 14:39 27.03761 -39.91462 40815 ft 567 kts 60°
2026-05-01 14:40 27.07371 -39.83603 40813 ft 566 kts 60°
2026-05-01 14:40 27.10948 -39.75728 40813 ft 567 kts 60°
2026-05-01 14:41 27.14510 -39.67827 40809 ft 567 kts 60°
2026-05-01 14:41 27.18063 -39.59926 40819 ft 567 kts 60°
2026-05-01 14:42 27.21612 -39.52021 40810 ft 567 kts 61°
2026-05-01 14:42 27.25154 -39.44115 40811 ft 566 kts 61°
2026-05-01 14:43 27.28686 -39.36207 40809 ft 566 kts 61°
2026-05-01 14:43 27.32215 -39.28289 40813 ft 566 kts 61°
2026-05-01 14:44 27.35741 -39.20364 40809 ft 566 kts 61°
2026-05-01 14:44 27.41022 -39.08465 40808 ft 566 kts 61°
2026-05-01 14:45 27.46293 -38.96554 40810 ft 566 kts 61°
2026-05-01 14:46 27.49776 -38.88664 40810 ft 566 kts 61°
2026-05-01 14:46 27.55026 -38.76742 40806 ft 566 kts 61°
2026-05-01 14:47 27.58523 -38.68784 40811 ft 566 kts 61°
2026-05-01 14:48 27.63758 -38.56840 40805 ft 566 kts 61°
2026-05-01 14:48 27.68980 -38.44891 40788 ft 566 kts 61°
2026-05-01 14:49 27.75925 -38.28944 40815 ft 566 kts 62°
2026-05-01 14:50 27.82827 -38.13035 40798 ft 566 kts 62°
2026-05-01 14:51 27.88014 -38.01038 40805 ft 566 kts 62°
2026-05-01 14:52 27.92604 -37.90390 40806 ft 566 kts 62°
2026-05-01 14:53 27.97774 -37.78365 40806 ft 566 kts 62°
2026-05-01 14:53 28.01212 -37.70349 40805 ft 566 kts 62°
2026-05-01 14:54 28.04643 -37.62333 40804 ft 566 kts 62°
2026-05-01 14:54 28.08067 -37.54317 40808 ft 566 kts 62°
2026-05-01 14:55 28.11464 -37.46348 40807 ft 566 kts 62°
2026-05-01 14:55 28.14883 -37.38311 40805 ft 566 kts 62°
2026-05-01 14:56 28.18294 -37.30277 40806 ft 566 kts 62°
2026-05-01 14:56 28.21697 -37.22247 40804 ft 565 kts 62°
2026-05-01 14:57 28.25100 -37.14200 40808 ft 566 kts 62°
2026-05-01 14:57 28.30199 -37.02111 40802 ft 565 kts 62°
2026-05-01 14:58 28.33589 -36.94055 40802 ft 565 kts 62°
2026-05-01 14:58 28.36951 -36.86048 40804 ft 565 kts 62°
2026-05-01 14:59 28.40332 -36.77981 40800 ft 565 kts 63°
2026-05-01 14:59 28.43702 -36.69922 40802 ft 565 kts 63°
2026-05-01 15:00 28.48754 -36.57811 40804 ft 565 kts 63°
2026-05-01 15:01 28.52113 -36.49737 40803 ft 565 kts 63°
2026-05-01 15:01 28.55467 -36.41658 40800 ft 565 kts 63°
2026-05-01 15:02 28.58821 -36.33564 40798 ft 565 kts 63°
2026-05-01 15:02 28.62165 -36.25476 40798 ft 565 kts 63°
2026-05-01 15:03 28.65485 -36.17429 40798 ft 565 kts 63°
2026-05-01 15:03 28.68823 -36.09324 40798 ft 565 kts 63°
2026-05-01 15:04 28.72148 -36.01231 40795 ft 565 kts 63°
2026-05-01 15:04 28.75475 -35.93119 40801 ft 565 kts 63°
2026-05-01 15:05 28.78722 -35.85184 40797 ft 565 kts 63°
2026-05-01 15:05 28.82036 -35.77067 40799 ft 564 kts 63°
2026-05-01 15:06 28.85344 -35.68950 40798 ft 564 kts 63°
2026-05-01 15:06 28.88647 -35.60828 40799 ft 564 kts 63°
2026-05-01 15:07 28.91927 -35.52744 40798 ft 564 kts 63°
2026-05-01 15:07 28.95217 -35.44618 40792 ft 564 kts 63°
2026-05-01 15:08 28.98507 -35.36477 40794 ft 564 kts 63°
2026-05-01 15:08 29.01786 -35.28344 40798 ft 564 kts 63°
2026-05-01 15:09 29.05060 -35.20208 40800 ft 564 kts 63°
2026-05-01 15:09 29.08334 -35.12055 40802 ft 564 kts 64°
2026-05-01 15:10 29.11595 -35.03914 40803 ft 564 kts 64°
2026-05-01 15:10 29.16484 -34.91677 40783 ft 563 kts 64°
2026-05-01 15:11 29.21360 -34.79437 40808 ft 564 kts 64°
2026-05-01 15:12 29.24603 -34.71271 40809 ft 563 kts 64°
2026-05-01 15:12 29.29460 -34.59010 40793 ft 564 kts 64°
2026-05-01 15:14 29.37513 -34.38594 40794 ft 563 kts 64°
2026-05-01 15:14 29.42340 -34.26301 40796 ft 564 kts 64°
2026-05-01 15:15 29.48765 -34.09876 40796 ft 564 kts 64°
2026-05-01 15:16 29.55175 -33.93417 40796 ft 564 kts 64°
2026-05-01 15:18 29.63159 -33.72815 40794 ft 565 kts 64°
2026-05-01 15:19 29.69514 -33.56335 40794 ft 565 kts 64°
2026-05-01 15:19 29.74280 -33.43924 40796 ft 565 kts 64°
2026-05-01 15:20 29.79040 -33.31489 40799 ft 565 kts 64°
2026-05-01 15:21 29.82207 -33.23193 40798 ft 565 kts 64°
2026-05-01 15:21 29.85367 -33.14894 40797 ft 566 kts 64°
2026-05-01 15:22 29.90081 -33.02481 40800 ft 566 kts 65°
2026-05-01 15:22 29.93229 -32.94166 40799 ft 566 kts 65°
2026-05-01 15:23 29.96377 -32.85834 40791 ft 566 kts 65°
2026-05-01 15:23 29.99516 -32.77505 40797 ft 566 kts 65°
2026-05-01 15:24 30.02633 -32.69218 40810 ft 566 kts 65°
2026-05-01 15:24 30.05761 -32.60882 40802 ft 566 kts 65°
2026-05-01 15:25 30.08887 -32.52529 40803 ft 566 kts 65°
2026-05-01 15:25 30.12011 -32.44166 40802 ft 566 kts 65°
2026-05-01 15:26 30.15129 -32.35797 40806 ft 566 kts 65°
2026-05-01 15:26 30.18216 -32.27492 40806 ft 566 kts 65°
2026-05-01 15:27 30.21322 -32.19117 40805 ft 567 kts 65°
2026-05-01 15:28 30.25971 -32.06543 40806 ft 567 kts 65°
2026-05-01 15:28 30.29061 -31.98163 40805 ft 566 kts 65°
2026-05-01 15:29 30.33692 -31.85566 40810 ft 567 kts 65°
2026-05-01 15:30 30.39331 -31.70166 40807 ft 567 kts 65°
2026-05-01 15:31 30.49038 -31.43497 40809 ft 568 kts 65°
2026-05-01 15:32 30.55164 -31.26561 40816 ft 569 kts 65°
2026-05-01 15:34 30.64312 -31.01117 40818 ft 570 kts 65°